Time,TemperatureF,DewpointF,PressureIn,WindDirection,WindDirectionDegrees,WindSpeedMPH,WindSpeedGustMPH,Humidity,HourlyPrecipIn,Conditions,Clouds,dailyrainin,SolarRadiationWatts/m^2,SoftwareType,DateUTC
2013-08-10 00:02:00,75.0,47.0,30.25,ENE,66,23.0,30.0,37,-99.99,,,-99.99,0.000000,,2013-08-10 06:02:00,
2013-08-10 00:11:00,74.0,47.0,30.25,ENE,60,22.0,26.0,38,-99.99,,,-99.99,0.000000,,2013-08-10 06:11:00,
2013-08-10 00:22:00,74.0,48.0,-100.00,ENE,59,22.0,26.0,39,-99.99,,,-99.99,0.000000,,2013-08-10 06:22:00,
2013-08-10 00:32:00,74.0,48.0,-100.00,ENE,59,22.0,26.0,39,-99.99,,,-99.99,0.000000,,2013-08-10 06:32:00,
2013-08-10 00:44:00,73.0,49.0,-100.00,ENE,60,25.0,30.0,41,-99.99,,,-99.99,0.000000,,2013-08-10 06:44:00,
2013-08-10 00:53:00,73.0,49.0,30.24,ENE,67,30.0,42.0,42,-99.99,,,-99.99,0.000000,,2013-08-10 06:53:00,
2013-08-10 01:02:00,73.0,49.0,30.24,ENE,67,30.0,42.0,42,-99.99,,,-99.99,0.000000,,2013-08-10 07:02:00,
2013-08-10 01:12:00,74.0,50.0,30.23,ENE,76,36.0,41.0,43,-99.99,,,-99.99,0.000000,,2013-08-10 07:12:00,
2013-08-10 01:22:00,73.0,50.0,30.23,East,79,35.0,42.0,44,-99.99,,,-99.99,0.000000,,2013-08-10 07:22:00,
2013-08-10 01:33:00,73.0,50.0,30.23,East,79,35.0,42.0,44,-99.99,,,-99.99,0.000000,,2013-08-10 07:33:00,
2013-08-10 01:43:00,73.0,51.0,30.24,ENE,73,31.0,36.0,45,-99.99,,,-99.99,0.000000,,2013-08-10 07:43:00,
2013-08-10 02:01:00,72.0,51.0,30.24,ENE,68,32.0,40.0,47,-99.99,,,-99.99,0.000000,,2013-08-10 08:01:00,
2013-08-10 02:12:00,72.0,50.0,30.22,ENE,75,41.0,50.0,46,-99.99,,,-99.99,0.000000,,2013-08-10 08:12:00,
2013-08-10 02:22:00,72.0,50.0,30.23,ENE,78,39.0,48.0,45,-99.99,,,-99.99,0.000000,,2013-08-10 08:22:00,
2013-08-10 02:32:00,72.0,50.0,30.23,ENE,78,39.0,48.0,45,-99.99,,,-99.99,0.000000,,2013-08-10 08:32:00,
2013-08-10 02:43:00,70.0,52.0,30.25,ENE,66,29.0,39.0,53,-99.99,,,-99.99,0.000000,,2013-08-10 08:43:00,
2013-08-10 02:53:00,68.0,53.0,30.25,NE,55,29.0,33.0,57,-99.99,,,-99.99,0.000000,,2013-08-10 08:53:00,
2013-08-10 03:02:00,68.0,53.0,30.25,NE,55,29.0,33.0,57,-99.99,,,-99.99,0.000000,,2013-08-10 09:02:00,
2013-08-10 03:12:00,69.0,53.0,30.26,ENE,58,27.0,31.0,56,-99.99,,,-99.99,0.000000,,2013-08-10 09:12:00,
2013-08-10 03:22:00,69.0,52.0,30.26,ENE,57,27.0,31.0,55,-99.99,,,-99.99,0.000000,,2013-08-10 09:22:00,
2013-08-10 03:32:00,69.0,52.0,30.26,ENE,57,27.0,31.0,55,-99.99,,,-99.99,0.000000,,2013-08-10 09:32:00,
2013-08-10 03:43:00,69.0,52.0,30.26,ENE,59,28.0,39.0,54,-99.99,,,-99.99,0.000000,,2013-08-10 09:43:00,
2013-08-10 03:52:00,69.0,51.0,30.26,ENE,64,31.0,40.0,53,-99.99,,,-99.99,0.000000,,2013-08-10 09:52:00,
2013-08-10 04:02:00,69.0,51.0,30.26,ENE,64,31.0,40.0,53,-99.99,,,-99.99,0.000000,,2013-08-10 10:02:00,
2013-08-10 04:11:00,69.0,51.0,30.26,ENE,68,31.0,36.0,52,-99.99,,,-99.99,0.000000,,2013-08-10 10:11:00,
2013-08-10 04:22:00,68.0,51.0,30.27,ENE,65,28.0,33.0,54,-99.99,,,-99.99,0.000000,,2013-08-10 10:22:00,
2013-08-10 04:33:00,68.0,51.0,30.27,ENE,65,28.0,33.0,54,-99.99,,,-99.99,0.000000,,2013-08-10 10:33:00,
2013-08-10 04:44:00,68.0,52.0,30.27,ENE,66,28.0,34.0,56,-99.99,,,-99.99,0.000000,,2013-08-10 10:44:00,
2013-08-10 04:53:00,67.0,52.0,30.27,ENE,69,28.0,34.0,58,-99.99,,,-99.99,0.000000,,2013-08-10 10:53:00,
2013-08-10 05:02:00,67.0,52.0,30.27,ENE,69,28.0,34.0,58,-99.99,,,-99.99,0.000000,,2013-08-10 11:02:00,
2013-08-10 05:11:00,67.0,53.0,30.28,ENE,64,23.0,28.0,60,-99.99,,,-99.99,0.000000,,2013-08-10 11:11:00,
2013-08-10 05:22:00,67.0,53.0,30.29,ENE,63,23.0,28.0,61,-99.99,,,-99.99,0.000000,,2013-08-10 11:22:00,
2013-08-10 05:33:00,67.0,53.0,30.29,ENE,63,23.0,28.0,61,-99.99,,,-99.99,0.000000,,2013-08-10 11:33:00,
2013-08-10 05:43:00,67.0,53.0,30.29,ENE,68,24.0,30.0,61,-99.99,,,-99.99,0.000000,,2013-08-10 11:43:00,
2013-08-10 05:53:00,67.0,53.0,30.30,ENE,74,24.0,29.0,61,-99.99,,,-99.99,0.000000,,2013-08-10 11:53:00,
2013-08-10 06:01:00,67.0,53.0,30.30,ENE,74,24.0,29.0,61,-99.99,,,-99.99,0.000000,,2013-08-10 12:01:00,
2013-08-10 06:11:00,67.0,53.0,30.30,ENE,68,24.0,29.0,62,-99.99,,,-99.99,0.000000,,2013-08-10 12:11:00,
2013-08-10 06:22:00,66.0,53.0,-100.00,ENE,71,26.0,32.0,62,-99.99,,,-99.99,0.000000,,2013-08-10 12:22:00,
2013-08-10 06:32:00,66.0,53.0,30.31,ENE,71,26.0,32.0,62,-99.99,,,-99.99,0.000000,,2013-08-10 12:32:00,
2013-08-10 06:42:00,66.0,53.0,30.31,East,81,28.0,33.0,62,-99.99,,,-99.99,0.000000,,2013-08-10 12:42:00,
2013-08-10 06:52:00,66.0,53.0,-100.00,East,82,28.0,33.0,64,-99.99,,,-99.99,2.790000,,2013-08-10 12:52:00,
2013-08-10 07:01:00,66.0,53.0,-100.00,East,82,28.0,33.0,64,-99.99,,,-99.99,2.790000,,2013-08-10 13:01:00,
2013-08-10 07:11:00,66.0,54.0,30.32,East,79,29.0,33.0,64,-99.99,,,-99.99,9.760000,,2013-08-10 13:11:00,
2013-08-10 07:21:00,65.0,54.0,30.32,East,81,34.0,43.0,66,-99.99,,,-99.99,11.850000,,2013-08-10 13:21:00,
2013-08-10 07:32:00,65.0,54.0,30.32,East,81,34.0,43.0,66,-99.99,,,-99.99,11.850000,,2013-08-10 13:32:00,
2013-08-10 07:43:00,65.0,54.0,-100.00,East,87,28.0,33.0,68,-99.99,,,-99.99,24.410000,,2013-08-10 13:43:00,
2013-08-10 07:52:00,65.0,54.0,-100.00,East,93,28.0,33.0,69,-99.99,,,-99.99,64.849998,,2013-08-10 13:52:00,
2013-08-10 08:02:00,65.0,54.0,-100.00,East,93,28.0,33.0,69,-99.99,,,-99.99,64.849998,,2013-08-10 14:02:00,
2013-08-10 08:12:00,65.0,54.0,-100.00,East,101,27.0,31.0,68,-99.99,,,-99.99,94.139999,,2013-08-10 14:12:00,
2013-08-10 08:22:00,65.0,54.0,-100.00,ESE,102,26.0,33.0,67,-99.99,,,-99.99,96.930000,,2013-08-10 14:22:00,
2013-08-10 08:32:00,65.0,54.0,30.35,ESE,102,26.0,33.0,67,-99.99,,,-99.99,96.930000,,2013-08-10 14:32:00,
2013-08-10 08:42:00,66.0,54.0,30.35,ESE,102,27.0,35.0,64,-99.99,,,-99.99,236.399994,,2013-08-10 14:42:00,
2013-08-10 08:53:00,67.0,54.0,-100.00,East,93,28.0,35.0,62,-99.99,,,-99.99,345.179993,,2013-08-10 14:53:00,
2013-08-10 09:02:00,67.0,54.0,-100.00,East,93,28.0,35.0,62,-99.99,,,-99.99,345.179993,,2013-08-10 15:02:00,
2013-08-10 09:11:00,67.0,54.0,-100.00,East,85,30.0,37.0,63,-99.99,,,-99.99,327.750000,,2013-08-10 15:11:00,
2013-08-10 09:22:00,68.0,55.0,-100.00,East,84,29.0,33.0,63,-99.99,,,-99.99,521.609985,,2013-08-10 15:22:00,
2013-08-10 09:33:00,68.0,55.0,-100.00,East,84,29.0,33.0,63,-99.99,,,-99.99,521.609985,,2013-08-10 15:33:00,
2013-08-10 09:43:00,67.0,55.0,-100.00,East,91,28.0,33.0,64,-99.99,,,-99.99,569.020020,,2013-08-10 15:43:00,
2013-08-10 09:52:00,69.0,55.0,-100.00,East,79,27.0,34.0,62,-99.99,,,-99.99,633.880005,,2013-08-10 15:52:00,
2013-08-10 10:01:00,69.0,55.0,-100.00,East,79,27.0,34.0,62,-99.99,,,-99.99,633.880005,,2013-08-10 16:01:00,
2013-08-10 10:11:00,70.0,56.0,-100.00,NE,52,25.0,33.0,61,-99.99,,,-99.99,740.570007,,2013-08-10 16:11:00,
2013-08-10 10:22:00,70.0,56.0,-100.00,NE,54,26.0,37.0,61,-99.99,,,-99.99,599.710022,,2013-08-10 16:22:00,
2013-08-10 10:32:00,70.0,56.0,30.37,NE,54,26.0,37.0,61,-99.99,,,-99.99,599.710022,,2013-08-10 16:32:00,
2013-08-10 10:43:00,70.0,55.0,30.36,ENE,72,28.0,35.0,59,-99.99,,,-99.99,650.609985,,2013-08-10 16:43:00,
2013-08-10 10:53:00,70.0,54.0,-100.00,East,84,29.0,35.0,57,-99.99,,,-99.99,809.599976,,2013-08-10 16:53:00,
2013-08-10 11:02:00,70.0,54.0,30.37,East,84,29.0,35.0,57,-99.99,,,-99.99,809.599976,,2013-08-10 17:02:00,
2013-08-10 11:12:00,70.0,54.0,30.37,East,81,28.0,38.0,58,-99.99,,,-99.99,626.210022,,2013-08-10 17:12:00,
2013-08-10 11:22:00,69.0,54.0,30.37,East,83,27.0,33.0,58,-99.99,,,-99.99,529.969971,,2013-08-10 17:22:00,
2013-08-10 11:33:00,69.0,54.0,30.37,East,83,27.0,33.0,58,-99.99,,,-99.99,529.969971,,2013-08-10 17:33:00,
2013-08-10 11:43:00,69.0,54.0,30.38,ENE,78,26.0,33.0,58,-99.99,,,-99.99,377.950012,,2013-08-10 17:43:00,
2013-08-10 11:52:00,70.0,54.0,30.38,ENE,77,25.0,31.0,57,-99.99,,,-99.99,638.059998,,2013-08-10 17:52:00,
2013-08-10 12:01:00,70.0,54.0,30.38,ENE,77,25.0,31.0,57,-99.99,,,-99.99,638.059998,,2013-08-10 18:01:00,
2013-08-10 12:11:00,71.0,54.0,30.37,East,79,26.0,35.0,56,-99.99,,,-99.99,783.109985,,2013-08-10 18:11:00,
2013-08-10 12:23:00,71.0,54.0,30.36,East,83,28.0,35.0,55,-99.99,,,-99.99,906.530029,,2013-08-10 18:23:00,
2013-08-10 12:32:00,71.0,54.0,30.36,East,83,28.0,35.0,55,-99.99,,,-99.99,906.530029,,2013-08-10 18:32:00,
2013-08-10 12:44:00,72.0,55.0,30.37,East,83,26.0,37.0,54,-99.99,,,-99.99,691.059998,,2013-08-10 18:44:00,
2013-08-10 12:52:00,70.0,55.0,30.37,East,89,25.0,34.0,57,-99.99,,,-99.99,327.750000,,2013-08-10 18:52:00,
2013-08-10 13:02:00,70.0,55.0,30.37,East,89,25.0,34.0,57,-99.99,,,-99.99,327.750000,,2013-08-10 19:02:00,
2013-08-10 13:11:00,70.0,55.0,30.37,East,89,22.0,29.0,58,-99.99,,,-99.99,191.070007,,2013-08-10 19:11:00,
2013-08-10 13:22:00,70.0,55.0,30.38,East,79,20.0,26.0,58,-99.99,,,-99.99,186.889999,,2013-08-10 19:22:00,
2013-08-10 13:32:00,70.0,55.0,-100.00,East,79,20.0,26.0,58,-99.99,,,-99.99,186.889999,,2013-08-10 19:32:00,
2013-08-10 13:44:00,70.0,55.0,30.37,East,81,20.0,24.0,58,-99.99,,,-99.99,288.000000,,2013-08-10 19:44:00,
2013-08-10 13:53:00,70.0,55.0,-100.00,East,94,17.0,21.0,58,-99.99,,,-99.99,226.630005,,2013-08-10 19:53:00,
2013-08-10 14:01:00,70.0,55.0,-100.00,East,94,17.0,21.0,58,-99.99,,,-99.99,226.630005,,2013-08-10 20:01:00,
2013-08-10 14:11:00,70.0,55.0,30.36,East,86,18.0,23.0,57,-99.99,,,-99.99,195.949997,,2013-08-10 20:11:00,
2013-08-10 14:22:00,70.0,55.0,30.35,East,82,17.0,21.0,57,-99.99,,,-99.99,156.899994,,2013-08-10 20:22:00,
2013-08-10 14:33:00,70.0,55.0,-100.00,East,82,17.0,21.0,57,-99.99,,,-99.99,156.899994,,2013-08-10 20:33:00,
2013-08-10 14:43:00,71.0,55.0,30.35,East,85,18.0,21.0,57,-99.99,,,-99.99,223.149994,,2013-08-10 20:43:00,
2013-08-10 14:53:00,71.0,55.0,30.35,East,86,13.0,21.0,56,-99.99,,,-99.99,311.709991,,2013-08-10 20:53:00,
2013-08-10 15:02:00,71.0,55.0,-100.00,East,86,13.0,21.0,56,-99.99,,,-99.99,311.709991,,2013-08-10 21:02:00,
2013-08-10 15:12:00,71.0,55.0,-100.00,East,98,10.0,16.0,56,-99.99,,,-99.99,294.970001,,2013-08-10 21:12:00,
2013-08-10 15:22:00,72.0,55.0,30.34,East,86,14.0,20.0,55,-99.99,,,-99.99,242.669998,,2013-08-10 21:22:00,
2013-08-10 15:32:00,72.0,55.0,30.34,East,86,14.0,20.0,55,-99.99,,,-99.99,242.669998,,2013-08-10 21:32:00,
2013-08-10 15:42:00,72.0,55.0,30.34,East,85,15.0,18.0,55,-99.99,,,-99.99,290.089996,,2013-08-10 21:42:00,
2013-08-10 15:52:00,72.0,55.0,30.33,East,80,13.0,18.0,55,-99.99,,,-99.99,260.799988,,2013-08-10 21:52:00,
2013-08-10 16:01:00,72.0,55.0,-100.00,East,80,13.0,18.0,55,-99.99,,,-99.99,260.799988,,2013-08-10 22:01:00,
2013-08-10 16:11:00,72.0,55.0,30.32,ENE,73,17.0,20.0,54,-99.99,,,-99.99,193.860001,,2013-08-10 22:11:00,
2013-08-10 16:21:00,72.0,55.0,30.32,ENE,69,15.0,21.0,55,-99.99,,,-99.99,255.919998,,2013-08-10 22:21:00,
2013-08-10 16:32:00,72.0,55.0,30.32,ENE,69,15.0,21.0,55,-99.99,,,-99.99,255.919998,,2013-08-10 22:32:00,
2013-08-10 16:43:00,73.0,55.0,30.31,ENE,76,18.0,22.0,53,-99.99,,,-99.99,283.119995,,2013-08-10 22:43:00,
2013-08-10 16:52:00,72.0,55.0,30.30,East,83,20.0,25.0,55,-99.99,,,-99.99,244.070007,,2013-08-10 22:52:00,
2013-08-10 17:01:00,72.0,55.0,-100.00,East,83,20.0,25.0,55,-99.99,,,-99.99,244.070007,,2013-08-10 23:01:00,
2013-08-10 17:12:00,72.0,56.0,-100.00,ENE,77,18.0,21.0,57,-99.99,,,-99.99,220.360001,,2013-08-10 23:12:00,
2013-08-10 17:22:00,71.0,56.0,30.29,East,81,20.0,23.0,59,-99.99,,,-99.99,186.889999,,2013-08-10 23:22:00,
2013-08-10 17:32:00,71.0,56.0,30.29,East,81,20.0,23.0,59,-99.99,,,-99.99,186.889999,,2013-08-10 23:32:00,
2013-08-10 17:43:00,71.0,57.0,30.29,East,82,19.0,21.0,61,-99.99,,,-99.99,166.660004,,2013-08-10 23:43:00,
2013-08-10 17:53:00,70.0,58.0,30.29,East,83,20.0,23.0,65,-99.99,,,-99.99,156.199997,,2013-08-10 23:53:00,
2013-08-10 18:01:00,70.0,58.0,-100.00,East,83,20.0,23.0,65,-99.99,,,-99.99,156.199997,,2013-08-11 00:01:00,
2013-08-10 18:11:00,70.0,57.0,-100.00,East,82,18.0,21.0,63,-99.99,,,-99.99,177.119995,,2013-08-11 00:11:00,
2013-08-10 18:22:00,70.0,56.0,30.28,ENE,68,16.0,20.0,60,-99.99,,,-99.99,161.080002,,2013-08-11 00:22:00,
2013-08-10 18:32:00,70.0,56.0,30.28,ENE,68,16.0,20.0,60,-99.99,,,-99.99,161.080002,,2013-08-11 00:32:00,
2013-08-10 18:42:00,71.0,55.0,30.28,ENE,69,16.0,20.0,57,-99.99,,,-99.99,140.860001,,2013-08-11 00:42:00,
2013-08-10 18:52:00,71.0,55.0,30.28,ENE,70,15.0,18.0,57,-99.99,,,-99.99,97.629997,,2013-08-11 00:52:00,
2013-08-10 19:01:00,71.0,55.0,-100.00,ENE,70,15.0,18.0,57,-99.99,,,-99.99,97.629997,,2013-08-11 01:01:00,
2013-08-10 19:11:00,71.0,55.0,30.27,ENE,77,19.0,21.0,57,-99.99,,,-99.99,67.639999,,2013-08-11 01:11:00,
2013-08-10 19:32:00,71.0,55.0,30.27,ENE,77,19.0,21.0,56,-99.99,,,-99.99,46.020000,,2013-08-11 01:32:00,
2013-08-10 19:43:00,71.0,55.0,30.27,East,83,18.0,20.0,57,-99.99,,,-99.99,34.169998,,2013-08-11 01:43:00,
2013-08-10 19:54:00,70.0,55.0,30.27,East,85,18.0,20.0,58,-99.99,,,-99.99,21.620001,,2013-08-11 01:54:00,
2013-08-10 20:02:00,70.0,55.0,-100.00,East,85,18.0,20.0,58,-99.99,,,-99.99,21.620001,,2013-08-11 02:02:00,
2013-08-10 20:11:00,70.0,56.0,-100.00,East,79,16.0,17.0,59,-99.99,,,-99.99,8.370000,,2013-08-11 02:11:00,
2013-08-10 20:32:00,70.0,56.0,-100.00,ENE,77,15.0,16.0,60,-99.99,,,-99.99,1.390000,,2013-08-11 02:32:00,
2013-08-10 20:43:00,70.0,56.0,30.28,ENE,76,15.0,16.0,60,-99.99,,,-99.99,0.000000,,2013-08-11 02:43:00,
2013-08-10 20:57:00,70.0,56.0,-100.00,East,85,14.0,16.0,60,-99.99,,,-99.99,0.000000,,2013-08-11 02:57:00,
2013-08-10 21:05:00,70.0,56.0,-100.00,East,85,14.0,16.0,60,-99.99,,,-99.99,0.000000,,2013-08-11 03:05:00,
2013-08-10 21:16:00,70.0,55.0,-100.00,East,90,14.0,16.0,58,-99.99,,,-99.99,0.000000,,2013-08-11 03:16:00,
2013-08-10 21:26:00,70.0,55.0,-100.00,East,93,13.0,16.0,57,-99.99,,,-99.99,0.000000,,2013-08-11 03:26:00,
2013-08-10 21:35:00,70.0,55.0,-100.00,East,93,13.0,16.0,57,-99.99,,,-99.99,0.000000,,2013-08-11 03:35:00,
2013-08-10 21:43:00,70.0,55.0,-100.00,East,93,13.0,16.0,57,-99.99,,,-99.99,0.000000,,2013-08-11 03:43:00,
2013-08-10 21:56:00,71.0,54.0,-100.00,East,82,13.0,15.0,55,-99.99,,,-99.99,0.000000,,2013-08-11 03:56:00,
2013-08-10 22:01:00,71.0,54.0,-100.00,East,82,13.0,15.0,55,-99.99,,,-99.99,0.000000,,2013-08-11 04:01:00,
2013-08-10 22:12:00,71.0,53.0,-100.00,East,90,14.0,17.0,53,-99.99,,,-99.99,0.000000,,2013-08-11 04:12:00,
2013-08-10 22:22:00,71.0,53.0,-100.00,East,87,18.0,23.0,52,-99.99,,,-99.99,0.000000,,2013-08-11 04:22:00,
2013-08-10 22:32:00,71.0,53.0,-100.00,East,87,18.0,23.0,52,-99.99,,,-99.99,0.000000,,2013-08-11 04:32:00,
2013-08-10 22:42:00,71.0,53.0,-100.00,East,82,18.0,21.0,53,-99.99,,,-99.99,0.000000,,2013-08-11 04:42:00,
2013-08-10 22:53:00,70.0,54.0,-100.00,East,88,18.0,20.0,56,-99.99,,,-99.99,0.000000,,2013-08-11 04:53:00,
2013-08-10 23:02:00,70.0,54.0,-100.00,East,88,18.0,20.0,56,-99.99,,,-99.99,0.000000,,2013-08-11 05:02:00,
2013-08-10 23:17:00,69.0,56.0,30.32,East,89,18.0,22.0,63,-99.99,,,-99.99,0.000000,,2013-08-11 05:17:00,
2013-08-10 23:35:00,68.0,56.0,30.31,East,90,22.0,25.0,64,-99.99,,,-99.99,0.000000,,2013-08-11 05:35:00,
2013-08-10 23:56:00,68.0,56.0,30.32,East,83,24.0,28.0,67,-99.99,,,-99.99,0.000000,,2013-08-11 05:56:00,